Location: Melizzano
(41.1500°N, 14.5000°E)
Time: 20:05:16
(UTC+00:00)

USA 307 - Pass Details

Date: 11 May 2021
Orbit: 566 x 577 km, 54.0° (Epoch: 10 May)

Event Time Altitude Azimuth Distance (km) Brightness Sun altitude
Rises 21:09:53 0° 310° (NW) 2,778 7.5 -25.6°
Reaches altitude 10° 21:12:09 10° 311° (NW) 1,879 6.4 -25.8°
Enters shadow 21:15:37 58° 323° (NW) 674 3.4 -26.1°
